Find KUIPER-00421

NORAD ID: 68933 Int'l Des: 2026-098Q Owner: KUIP Country: US Constellation: amazon-leo operational
LEOCIRCULAR

リアルタイム位置

3D地球を読み込み中...

KUIPER-00421について

説明を読み込み中...

次回通過

Passes for default location (London). Set your location on the main map for personalized predictions.

高度履歴

Loading altitude history...

軌道要素

1 68933U 26098Q 26125.83336806 .00056674 00000-0 16620-2 0 9992
2 68933 51.8776 271.7826 0007495 353.8560 303.3648 15.34608990 1310
Epoch: May 5, 2026 • Age: 7 hours

現在のステータス

高度 459.7 km
速度 7.64 km/s
衛星直下点 29.36°N, 32.13°E
打ち上げ日 Apr 30, 2026
運用期間 6 days
タイプ internet

技術仕様

分類 Payload
質量 490.00 kg
乾燥質量 490.00 kg
総質量 490.00 kg
長さ 1.80 m
直径 0.70 m
スパン 5.00 m
形状 Box + 2 pan
製造者 KUIP
バスタイプ Kuiper
フェーズステータス In Orbit
所有者/国 KUIP/US

Most Searched